New York, NY

4:51 PM EST on November 12, 2019 (GMT -0500)
La Guardia

Weather History for KLGA - August, 2019

Change the Weather History Date:

Saturday, August 31, 2019

  Actual Average Record
Temperature  
Mean Temperature 77 °F 74 °F  
Max Temperature 82 °F 81 °F 100 °F (1953)
Min Temperature 71 °F 67 °F 52 °F (1976)
Degree Days  
Heating Degree Days 0 0  
Month to date heating degree days 0 0  
Since 1 June heating degree days 4 17  
Since 1 July heating degree days 0 1  
Cooling Degree Days 12 9  
Month to date cooling degree days 404 351  
Year to date cooling degree days 1229 1033  
Since 1 June cooling degree days 1167 967  
Growing Degree Days 26 (Base 50)    
Moisture  
Dew Point 54 °F    
Average Humidity 50    
Maximum Humidity 66    
Minimum Humidity 33    
Precipitation  
Precipitation 0.00 in 0.11 in 1.60 in (1954)
Month to date precipitation 3.14 4.12  
Year to date precipitation 35.84 30.25  
Snow  
Snow 0.00 in 0.00 in - ()
Month to date snowfall 0.0 0.0  
Since 1 July snowfall 0.0 0.0  
Snow Depth 0.00 in    
Sea Level Pressure  
Sea Level Pressure 30.19 in    
Wind  
Wind Speed 9 mph (NNE)    
Max Wind Speed 14 mph    
Max Gust Speed 19 mph    
Visibility 10 miles    
Events      
T = Trace of Precipitation, MM = Missing Value Source: NWS Daily Summary

Daily Weather History Graph

Daily Weather History Graph

Search for Another Location

Airport or City:

Astronomy

Aug. 31, 2019 Rise Set
Actual Time 6:21 AM EDT 7:29 PM EDT
Civil Twilight 5:52 AM EDT 7:57 PM EDT
Nautical Twilight 5:19 AM EDT 8:31 PM EDT
Astronomical Twilight 4:43 AM EDT 9:06 PM EDT
Moon 7:34 AM EDT (8/31) 8:40 PM EDT (8/31)
Length of Visible Light 14h 04m
Length of Day
13h 08m
New Moon, 2% of the Moon is Illuminated
Aug 31
New Moon
Sep 5
First Quarter
Sep 14
Full
Sep 21
Last Quarter
Sep 28
New

Hourly Weather History & Observations

Time (EDT) Temp. Heat Index Dew Point Humidity Pressure Visibility Wind Dir Wind Speed Gust Speed Precip Events Conditions
12:51 AM 79.0 °F - 63.0 °F 58% 30.07 in 10.0 mi WNW 5.8 mph - N/A   Scattered Clouds
1:51 AM 78.1 °F - 64.0 °F 62% 30.08 in 10.0 mi NNW 6.9 mph - N/A   Scattered Clouds
2:51 AM 77.0 °F - 62.1 °F 60% 30.09 in 10.0 mi North 9.2 mph - N/A   Scattered Clouds
3:51 AM 73.9 °F - 61.0 °F 64% 30.11 in 10.0 mi NE 9.2 mph - N/A   Mostly Cloudy
4:51 AM 72.0 °F - 59.0 °F 64% 30.14 in 10.0 mi NE 8.1 mph - N/A   Mostly Cloudy
5:51 AM 71.1 °F - 55.9 °F 59% 30.15 in 10.0 mi NNE 6.9 mph - N/A   Scattered Clouds
6:51 AM 71.1 °F - 53.1 °F 53% 30.18 in 10.0 mi NNE 4.6 mph - N/A   Mostly Cloudy
7:51 AM 72.0 °F - 52.0 °F 49% 30.21 in 10.0 mi NNE 6.9 mph - N/A   Mostly Cloudy
8:51 AM 72.0 °F - 51.1 °F 48% 30.21 in 10.0 mi NNE 11.5 mph - N/A   Mostly Cloudy
9:51 AM 73.9 °F - 51.1 °F 45% 30.22 in 10.0 mi NE 11.5 mph - N/A   Mostly Cloudy
10:51 AM 75.0 °F - 51.1 °F 43% 30.22 in 10.0 mi NNE 9.2 mph - N/A   Mostly Cloudy
11:51 AM 75.9 °F - 52.0 °F 43% 30.22 in 10.0 mi North 11.5 mph - N/A   Mostly Cloudy
12:51 PM 79.0 °F - 53.1 °F 40% 30.22 in 10.0 mi NNW 6.9 mph - N/A   Mostly Cloudy
1:51 PM 80.1 °F 79.9 °F 53.1 °F 39% 30.21 in 10.0 mi NE 6.9 mph - N/A   Mostly Cloudy
2:51 PM 81.0 °F - 52.0 °F 36% 30.20 in 10.0 mi NW 8.1 mph - N/A   Mostly Cloudy
3:51 PM 81.0 °F - 51.1 °F 35% 30.20 in 10.0 mi North 8.1 mph - N/A   Mostly Cloudy
4:51 PM 80.1 °F - 48.9 °F 34% 30.20 in 10.0 mi NNE 9.2 mph - N/A   Mostly Cloudy
5:51 PM 79.0 °F - 48.9 °F 35% 30.21 in 10.0 mi North 8.1 mph - N/A   Mostly Cloudy
6:51 PM 78.1 °F - 48.9 °F 36% 30.22 in 10.0 mi NNE 10.4 mph - N/A   Mostly Cloudy
7:51 PM 77.0 °F - 48.9 °F 37% 30.23 in 10.0 mi NNE 8.1 mph - N/A   Mostly Cloudy
8:51 PM 73.9 °F - 55.9 °F 53% 30.25 in 10.0 mi NNE 8.1 mph - N/A   Mostly Cloudy
9:51 PM 73.9 °F - 52.0 °F 46% 30.26 in 10.0 mi NNE 6.9 mph - N/A   Mostly Cloudy
10:51 PM 73.0 °F - 53.1 °F 49% 30.27 in 10.0 mi NE 11.5 mph - N/A   Mostly Cloudy
11:51 PM 72.0 °F - 51.1 °F 48% 30.28 in 10.0 mi ENE 10.4 mph - N/A   Mostly Cloudy